Regional Weather Roundup
Issued by NWS

Home | Current Version | Previous Version | Text Only | Print | Product List | Glossary Off
Versions: 1 2 3 4 5 6 7 8 9 10 11 12 13 14 15 16 17 18 19 20 21 22 23 24 25 26 27 28 29 30 31 32 33 34 35 36 37 38 39 40 41 42 43 44 45 46 47 48 49 50

000
ASUS43 KFSD 280110
RWRSD

WEATHER ROUNDUP FOR SOUTH DAKOTA
NATIONAL WEATHER SERVICE SIOUX FALLS SD
700 PM CST SAT DEC 27 2014

NOTE: "FAIR" INDICATES FEW OR NO CLOUDS BELOW 12,000 FEET WITH NO
SIGNIFICANT WEATHER AND/OR OBSTRUCTIONS TO VISIBILITY.


SDZ001>005-009-010-012>017-280200-
NORTHWEST AND NORTH CENTRAL SOUTH DAKOTA

CITY           SKY/WX    TMP DP  RH WIND       PRES   REMARKS
BUFFALO          N/A     20  14  77 W14       29.94S WCI   7
FAITH            N/A     20  12  71 W8        30.02S WCI  10
MOBRIDGE       MOCLDY    23  16  74 CALM      30.00S
$$

SDZ012>016-024>037-041>051-057-063-072>074-280200-
SOUTHWEST AND SOUTH CENTRAL SOUTH DAKOTA

CITY           SKY/WX    TMP DP  RH WIND       PRES   REMARKS
RAPID CTY ARPT MOCLDY    19  13  77 CALM      30.03F
PIERRE         PTCLDY    21  15  78 SW6       30.07S WCI  13
CUSTER         PTCLDY    14   6  70 W6        29.94R WCI   5
PHILIP         PTCLDY    19  14  81 W6        30.07S WCI  11
PINE RIDGE     CLEAR     14   6  70 W5        30.06S WCI   6
SPEARFISH      CLOUDY    23  10  58 MISG      30.01S
WINNER         FAIR      19  10  68 SW8       30.10S WCI   9
$$

SDZ004>011-016>023-039-040-280200-
NORTHEAST SOUTH DAKOTA

CITY           SKY/WX    TMP DP  RH WIND       PRES   REMARKS
ABERDEEN       MOCLDY    20  15  81 SW9       30.07S WCI   9
WATERTOWN      CLEAR      7   3  84 S6        30.07S WCI  -3
SISSETON         N/A     23  17  78 N7        30.05R WCI  15
$$

SDZ017-020-022-023-036>040-048>070-280200-
SOUTHEAST SOUTH DAKOTA

CITY           SKY/WX    TMP DP  RH WIND       PRES   REMARKS
SIOUX FALLS    CLEAR     13   9  84 SW5       30.15S WCI   5
HURON          CLEAR     13   9  84 S8        30.11F WCI   2
CHAMBERLAIN    CLEAR     13  10  88 CALM      30.11S
MITCHELL       CLEAR     14  10  84 SW6       30.16R WCI   5
YANKTON        CLEAR     16  10  79 SW6       30.19S WCI   7
$$

ABBREVIATIONS USED IN REMARKS
   TC - TEMPERATURE IN CELSIUS
  WCI - WIND CHILL INDEX
   HX - HEAT INDEX
  VSB - VISIBILITY



USA.gov is the U.S. government's official web portal to all federal, state and local government web resources and services.